Zurück zum Katalog

STARLINK-38136

AktivKommunikationSSO
NORAD 100166·PAYLOAD·🇺🇸 United States

Gestartet Jul 25, 2026 von Vandenberg Space Force Base

Loading…

Nächste Überflüge (nächste 24 Stunden)

TLE

AktuellSource: Space-Track

Epoche: Sep 14, 2026, 13:27 UTC

1 A0166U 26171U   26257.56056152  .00031182  00000-0  86163-3 0  9994
2 A0166  97.2832 290.0548 0000778 260.8125  99.3032 15.36988129  7982

Verfolge STARLINK-38136 in Echtzeit mit AllMySat

Download on the App Store